Flag for China Weather past 2 weeks in Shanghai, Shanghai Municipality, China

Now
77 °F

Sprinkles. Passing clouds.


Feels Like: 78 °F
Forecast: 71 / 79 °F
Wind: 6 mph from West

Location: Shanghai Hongqiao Airport

Current Time: Sep 2, 2014 at 11:52:37 PM

Latest Report: Sep 2, 2014 at 11:00 PM


Visibility: N/A

Pressure: 29.74 "Hg

Humidity: 89%

Dew point: 73 °F

Location of ShanghaiLocation

Historic Weather in Shanghai — Graph

°F

Shanghai temperature yesterday

Maximum temperature yesterday: 86 °F (at 11:30 AM)
Minimum temperature yesterday: 77 °F (at 4:00 AM)
Average temperature yesterday: 81 °F

Past Weeks' High & Low Weather Summary

 TemperatureHumidityPressure
High93 °F (Aug 24, 11:30 AM)100% (Aug 18, 10:30 PM)29.98 "Hg (Aug 18, 10:30 PM)
Low68 °F (Aug 21, 4:30 AM)55% (Aug 21, 1:30 PM)29.62 "Hg (Aug 24, 4:00 PM)
Average79 °F82%29.84 "Hg
* Reported Aug 18 10:00 PM — Sep 2 10:30 PM, Shanghai, Weather by CustomWeather, © 2014

Note: Actual official high and low records may vary slightly from our data, if they occured in-between our weather recording intervals... More about our weather records

Advertising

Shanghai weather history for previous 24 hours

 ConditionsComfort  
Time TempWeatherWind HumidityBarometerVisibility
10:30 PM
Sep 2
77 °FSprinkles. Passing clouds.6 mph89%29.74 "HgN/A
10:00 PM77 °FPassing clouds.8 mph94%29.77 "HgN/A
9:30 PM77 °FPassing clouds.8 mph89%29.77 "HgN/A
9:00 PM77 °FSprinkles. Passing clouds.6 mph94%29.77 "HgN/A
8:30 PM77 °FThunderstorms. Passing clouds.1 mph89%29.77 "HgN/A
8:00 PM79 °FThunderstorms. Passing clouds.15 mph84%29.74 "HgN/A
7:30 PM84 °FThunderstorms. Passing clouds.6 mph79%29.71 "Hg4 mi
7:00 PM84 °FClear.6 mph74%29.71 "Hg10 mi
6:30 PM86 °FSprinkles. Clear.6 mph75%29.71 "HgN/A
6:00 PM86 °FSunny.6 mph70%29.71 "Hg10 mi
5:30 PM88 °FSunny.3 mph62%29.71 "Hg10 mi
5:00 PM88 °FPassing clouds.6 mph66%29.71 "HgN/A
4:30 PM88 °FSunny.8 mph62%29.71 "Hg10 mi
4:00 PM90 °FPassing clouds.6 mph63%29.71 "HgN/A
3:30 PM90 °FPassing clouds.8 mph67%29.71 "HgN/A
3:00 PM90 °FPassing clouds.8 mph63%29.71 "HgN/A
2:30 PM90 °FPassing clouds.8 mph67%29.71 "HgN/A
2:00 PM88 °FPassing clouds.10 mph66%29.71 "HgN/A
1:30 PM88 °FPassing clouds.10 mph66%29.74 "HgN/A
1:00 PM88 °FScattered clouds.13 mph66%29.74 "HgN/A
12:30 PM88 °FScattered clouds.13 mph66%29.74 "HgN/A
12:00 PM88 °FPassing clouds.10 mph66%29.77 "HgN/A
11:30 AM88 °FSunny.10 mph66%29.77 "Hg10 mi
11:00 AM86 °FPassing clouds.8 mph70%29.77 "HgN/A
10:30 AM84 °FPassing clouds.8 mph70%29.77 "HgN/A
10:00 AM82 °FPassing clouds.10 mph74%29.80 "HgN/A
9:30 AM82 °FPassing clouds.10 mph74%29.80 "Hg4 mi
9:00 AM82 °FScattered clouds.8 mph79%29.80 "Hg4 mi
8:30 AM81 °FFog.8 mph84%29.80 "Hg3 mi
8:00 AM79 °FFog.6 mph89%29.80 "Hg2 mi
7:30 AM79 °FFog.6 mph89%29.80 "Hg2 mi
7:00 AM77 °FFog.6 mph94%29.80 "Hg2 mi
6:30 AM77 °FFog.6 mph94%29.80 "Hg2 mi
6:00 AM75 °FFog.3 mph94%29.80 "Hg2 mi
5:30 AM75 °FFog.3 mph94%29.77 "Hg3 mi
4:30 AM75 °FClear.6 mph94%29.77 "Hg4 mi
4:00 AM75 °FClear.6 mph94%29.77 "Hg10 mi
3:30 AM75 °FClear.6 mph94%29.77 "Hg10 mi
3:00 AM77 °FClear.6 mph89%29.80 "Hg10 mi
2:30 AM77 °FClear.6 mph89%29.80 "Hg10 mi
2:00 AM77 °FClear.6 mph89%29.80 "Hg10 mi
1:30 AM77 °FPassing clouds.6 mph89%29.80 "HgN/A
1:00 AM77 °FPassing clouds.6 mph89%29.80 "HgN/A
12:30 AM77 °FClear.6 mph89%29.80 "Hg10 mi
12:00 AM77 °FClear.6 mph89%29.80 "Hg10 mi
11:30 PM
Sep 1
77 °FPassing clouds.6 mph89%29.80 "HgN/A
11:00 PM77 °FPassing clouds.10 mph89%29.80 "HgN/A
Weather by CustomWeather, © 2014

See weather overviewHow to use our weather pages